Time,TemperatureF,DewpointF,PressureIn,WindDirection,WindDirectionDegrees,WindSpeedMPH,WindSpeedGustMPH,Humidity,HourlyPrecipIn,Conditions,Clouds,dailyrainin,SoftwareType,DateUTC
2013-05-19 00:01:00,65.2,58.5,30.23,ESE,113,0.0,1.4,79,0.00,,,0.00,WUHU216HW,2013-05-19 04:01:00,
2013-05-19 00:02:00,65.2,58.5,30.23,ESE,113,0.0,1.4,79,0.00,,,0.00,WUHU216HW,2013-05-19 04:02:00,
2013-05-19 00:03:00,65.2,58.5,30.23,ESE,113,0.0,1.4,79,0.00,,,0.00,WUHU216HW,2013-05-19 04:03:00,
2013-05-19 00:08:00,65.0,58.7,30.23,North,0,0.0,0.0,80,0.00,,,0.00,WUHU216HW,2013-05-19 04:08:00,
2013-05-19 00:13:00,64.6,58.7,30.22,North,0,0.0,0.0,81,0.00,,,0.00,WUHU216HW,2013-05-19 04:13:00,
2013-05-19 00:18:00,64.4,58.5,30.23,North,0,0.0,0.0,81,0.00,,,0.00,WUHU216HW,2013-05-19 04:18:00,
2013-05-19 00:23:00,64.3,58.3,30.23,North,0,0.0,0.0,81,0.00,,,0.00,WUHU216HW,2013-05-19 04:23:00,
2013-05-19 00:28:00,64.1,58.2,30.23,North,0,0.0,0.0,81,0.00,,,0.00,WUHU216HW,2013-05-19 04:28:00,
2013-05-19 00:33:00,63.7,57.8,30.23,North,0,0.0,0.0,81,0.00,,,0.00,WUHU216HW,2013-05-19 04:33:00,
2013-05-19 00:38:00,63.5,57.6,30.23,North,0,0.0,0.0,81,0.00,,,0.00,WUHU216HW,2013-05-19 04:38:00,
2013-05-19 00:43:00,63.4,57.1,30.22,North,0,0.0,0.0,80,0.00,,,0.00,WUHU216HW,2013-05-19 04:43:00,
2013-05-19 00:48:00,63.2,56.9,30.23,North,0,0.0,0.0,80,0.00,,,0.00,WUHU216HW,2013-05-19 04:48:00,
2013-05-19 00:53:00,63.0,57.7,30.22,North,0,0.0,0.0,83,0.00,,,0.00,WUHU216HW,2013-05-19 04:53:00,
2013-05-19 00:58:00,62.8,57.3,30.22,North,0,0.0,0.0,82,0.00,,,0.00,WUHU216HW,2013-05-19 04:58:00,
2013-05-19 01:03:00,62.5,57.3,30.22,North,0,0.0,0.0,83,0.00,,,0.00,WUHU216HW,2013-05-19 05:03:00,
2013-05-19 01:09:00,62.3,57.1,30.22,North,0,0.0,0.0,83,0.00,,,0.00,WUHU216HW,2013-05-19 05:09:00,
2013-05-19 01:13:00,62.1,57.5,30.22,North,0,0.0,0.0,85,0.00,,,0.00,WUHU216HW,2013-05-19 05:13:00,
2013-05-19 01:19:00,61.9,57.1,30.22,North,0,0.0,0.0,84,0.00,,,0.00,WUHU216HW,2013-05-19 05:19:00,
2013-05-19 01:24:00,61.9,56.7,30.22,NNE,23,0.0,0.0,83,0.00,,,0.00,WUHU216HW,2013-05-19 05:24:00,
2013-05-19 01:29:00,61.7,56.5,30.22,NNE,23,0.0,0.0,83,0.00,,,0.00,WUHU216HW,2013-05-19 05:29:00,
2013-05-19 01:34:00,61.6,57.1,30.22,NNE,23,0.0,0.0,85,0.00,,,0.00,WUHU216HW,2013-05-19 05:34:00,
2013-05-19 01:39:00,61.4,56.9,30.22,NNE,23,0.0,0.0,85,0.00,,,0.00,WUHU216HW,2013-05-19 05:39:00,
2013-05-19 01:44:00,61.2,57.0,30.22,NNE,23,0.0,0.0,86,0.00,,,0.00,WUHU216HW,2013-05-19 05:44:00,
2013-05-19 01:49:00,61.0,56.9,30.22,NNE,23,0.0,0.0,86,0.00,,,0.00,WUHU216HW,2013-05-19 05:49:00,
2013-05-19 01:54:00,60.8,57.0,30.22,North,0,0.0,0.0,87,0.00,,,0.00,WUHU216HW,2013-05-19 05:54:00,
2013-05-19 02:00:00,60.8,57.0,30.22,North,0,0.0,0.0,87,0.00,,,0.00,WUHU216HW,2013-05-19 06:00:00,
2013-05-19 02:05:00,60.8,56.7,30.22,North,0,0.0,0.0,86,0.00,,,0.00,WUHU216HW,2013-05-19 06:05:00,
2013-05-19 02:10:00,60.8,57.0,30.22,North,0,0.0,0.0,87,0.00,,,0.00,WUHU216HW,2013-05-19 06:10:00,
2013-05-19 02:15:00,60.5,56.6,30.22,North,0,0.0,0.0,87,0.00,,,0.00,WUHU216HW,2013-05-19 06:15:00,
2013-05-19 02:20:00,60.3,56.4,30.22,North,0,0.0,0.0,87,0.00,,,0.00,WUHU216HW,2013-05-19 06:20:00,
2013-05-19 02:25:00,60.1,56.3,30.22,North,0,0.0,0.0,87,0.00,,,0.00,WUHU216HW,2013-05-19 06:25:00,
2013-05-19 02:30:00,60.1,56.3,30.22,North,0,0.0,0.0,87,0.00,,,0.00,WUHU216HW,2013-05-19 06:30:00,
2013-05-19 02:35:00,59.9,56.1,30.22,North,0,0.0,0.0,87,0.00,,,0.00,WUHU216HW,2013-05-19 06:35:00,
2013-05-19 02:40:00,59.9,56.1,30.21,North,0,0.0,0.0,87,0.00,,,0.00,WUHU216HW,2013-05-19 06:40:00,
2013-05-19 02:45:00,59.8,55.9,30.21,North,0,0.0,0.0,87,0.00,,,0.00,WUHU216HW,2013-05-19 06:45:00,
2013-05-19 02:50:00,59.8,55.9,30.21,North,0,0.0,0.0,87,0.00,,,0.00,WUHU216HW,2013-05-19 06:50:00,
2013-05-19 02:55:00,59.4,55.5,30.21,North,0,0.0,0.0,87,0.00,,,0.00,WUHU216HW,2013-05-19 06:55:00,
2013-05-19 03:00:00,59.4,55.5,30.21,North,0,0.0,0.0,87,0.00,,,0.00,WUHU216HW,2013-05-19 07:00:00,
2013-05-19 03:05:00,59.4,56.2,30.21,North,0,0.0,0.0,89,0.00,,,0.00,WUHU216HW,2013-05-19 07:05:00,
2013-05-19 03:11:00,59.2,56.3,30.21,North,0,0.0,0.0,90,0.00,,,0.00,WUHU216HW,2013-05-19 07:11:00,
2013-05-19 03:16:00,59.0,55.8,30.21,North,0,0.0,0.0,89,0.00,,,0.00,WUHU216HW,2013-05-19 07:16:00,
2013-05-19 03:21:00,59.0,55.8,30.21,North,0,0.0,0.0,89,0.00,,,0.00,WUHU216HW,2013-05-19 07:21:00,
2013-05-19 03:26:00,59.0,55.8,30.21,North,0,0.0,0.0,89,0.00,,,0.00,WUHU216HW,2013-05-19 07:26:00,
2013-05-19 03:31:00,58.9,55.6,30.21,North,0,0.0,0.0,89,0.00,,,0.00,WUHU216HW,2013-05-19 07:31:00,
2013-05-19 03:36:00,58.7,55.8,30.21,North,0,0.0,0.0,90,0.00,,,0.00,WUHU216HW,2013-05-19 07:36:00,
2013-05-19 03:41:00,58.5,55.6,30.21,North,0,0.0,0.0,90,0.00,,,0.00,WUHU216HW,2013-05-19 07:41:00,
2013-05-19 03:46:00,58.5,55.3,30.21,North,0,0.0,0.0,89,0.00,,,0.00,WUHU216HW,2013-05-19 07:46:00,
2013-05-19 03:51:00,58.3,55.4,30.21,North,0,0.0,0.0,90,0.00,,,0.00,WUHU216HW,2013-05-19 07:51:00,
2013-05-19 03:56:00,58.3,55.4,30.21,North,0,0.0,0.0,90,0.00,,,0.00,WUHU216HW,2013-05-19 07:56:00,
2013-05-19 04:01:00,58.1,54.9,30.21,North,0,0.0,0.0,89,0.00,,,0.00,WUHU216HW,2013-05-19 08:01:00,
2013-05-19 04:06:00,58.1,55.3,30.21,North,0,0.0,0.0,90,0.00,,,0.00,WUHU216HW,2013-05-19 08:06:00,
2013-05-19 04:11:00,58.0,55.1,30.21,North,0,0.0,0.0,90,0.00,,,0.00,WUHU216HW,2013-05-19 08:11:00,
2013-05-19 04:16:00,58.0,55.1,30.21,North,0,0.0,0.0,90,0.00,,,0.00,WUHU216HW,2013-05-19 08:16:00,
2013-05-19 04:21:00,58.0,55.1,30.21,North,0,0.0,0.0,90,0.00,,,0.00,WUHU216HW,2013-05-19 08:21:00,
2013-05-19 04:26:00,57.8,54.9,30.21,North,0,0.0,0.0,90,0.00,,,0.00,WUHU216HW,2013-05-19 08:26:00,
2013-05-19 04:32:00,57.8,54.9,30.21,North,0,0.0,0.0,90,0.00,,,0.00,WUHU216HW,2013-05-19 08:32:00,
2013-05-19 04:37:00,57.8,54.5,30.21,North,0,0.0,0.0,89,0.00,,,0.00,WUHU216HW,2013-05-19 08:37:00,
2013-05-19 04:42:00,57.8,54.9,30.22,North,0,0.0,0.0,90,0.00,,,0.00,WUHU216HW,2013-05-19 08:42:00,
2013-05-19 04:47:00,57.6,54.7,30.21,North,0,0.0,0.0,90,0.00,,,0.00,WUHU216HW,2013-05-19 08:47:00,
2013-05-19 04:52:00,57.4,54.5,30.21,North,0,0.0,0.0,90,0.00,,,0.00,WUHU216HW,2013-05-19 08:52:00,
2013-05-19 04:57:00,57.4,54.5,30.21,North,0,0.0,0.0,90,0.00,,,0.00,WUHU216HW,2013-05-19 08:57:00,
2013-05-19 05:02:00,57.2,54.4,30.22,North,0,0.0,0.0,90,0.00,,,0.00,WUHU216HW,2013-05-19 09:02:00,
2013-05-19 05:07:00,57.2,54.6,30.21,North,0,0.0,0.0,91,0.00,,,0.00,WUHU216HW,2013-05-19 09:07:00,
2013-05-19 05:12:00,57.2,54.4,30.22,North,0,0.0,0.0,90,0.00,,,0.00,WUHU216HW,2013-05-19 09:12:00,
2013-05-19 05:17:00,57.2,54.4,30.22,North,0,0.0,0.0,90,0.00,,,0.00,WUHU216HW,2013-05-19 09:17:00,
2013-05-19 05:22:00,57.2,54.4,30.22,North,0,0.0,0.0,90,0.00,,,0.00,WUHU216HW,2013-05-19 09:22:00,
2013-05-19 05:27:00,57.2,54.6,30.22,North,0,0.0,0.0,91,0.00,,,0.00,WUHU216HW,2013-05-19 09:27:00,
2013-05-19 05:32:00,57.1,54.2,30.21,North,0,0.0,0.0,90,0.00,,,0.00,WUHU216HW,2013-05-19 09:32:00,
2013-05-19 05:37:00,57.1,54.2,30.22,North,0,0.0,0.0,90,0.00,,,0.00,WUHU216HW,2013-05-19 09:37:00,
2013-05-19 05:43:00,57.1,54.5,30.22,North,0,0.0,0.0,91,0.00,,,0.00,WUHU216HW,2013-05-19 09:43:00,
2013-05-19 05:48:00,57.1,54.5,30.23,North,0,0.0,0.0,91,0.00,,,0.00,WUHU216HW,2013-05-19 09:48:00,
2013-05-19 05:53:00,57.2,54.6,30.23,North,0,0.0,0.0,91,0.00,,,0.00,WUHU216HW,2013-05-19 09:53:00,
2013-05-19 05:58:00,57.2,54.6,30.23,North,0,0.0,0.0,91,0.00,,,0.00,WUHU216HW,2013-05-19 09:58:00,
2013-05-19 06:03:00,57.1,54.2,30.24,North,0,0.0,0.0,90,0.00,,,0.00,WUHU216HW,2013-05-19 10:03:00,
2013-05-19 06:08:00,56.9,54.0,30.24,North,0,0.0,0.0,90,0.00,,,0.00,WUHU216HW,2013-05-19 10:08:00,
2013-05-19 06:13:00,56.9,54.0,30.24,North,0,0.0,0.0,90,0.00,,,0.00,WUHU216HW,2013-05-19 10:13:00,
2013-05-19 06:18:00,56.9,54.3,30.24,North,0,0.0,0.0,91,0.00,,,0.00,WUHU216HW,2013-05-19 10:18:00,
2013-05-19 06:23:00,56.9,54.3,30.24,North,0,0.0,0.0,91,0.00,,,0.00,WUHU216HW,2013-05-19 10:23:00,
2013-05-19 06:28:00,57.1,54.5,30.24,North,0,0.0,0.0,91,0.00,,,0.00,WUHU216HW,2013-05-19 10:28:00,
2013-05-19 06:33:00,57.2,54.6,30.24,North,0,0.0,0.0,91,0.00,,,0.00,WUHU216HW,2013-05-19 10:33:00,
2013-05-19 06:38:00,57.2,54.6,30.24,North,0,0.0,0.0,91,0.00,,,0.00,WUHU216HW,2013-05-19 10:38:00,
2013-05-19 06:43:00,57.2,54.6,30.24,North,0,0.0,0.0,91,0.00,,,0.00,WUHU216HW,2013-05-19 10:43:00,
2013-05-19 06:48:00,57.2,54.6,30.24,North,0,0.0,0.0,91,0.00,,,0.00,WUHU216HW,2013-05-19 10:48:00,
2013-05-19 06:54:00,57.2,54.6,30.24,North,0,0.0,0.0,91,0.00,,,0.00,WUHU216HW,2013-05-19 10:54:00,
2013-05-19 06:59:00,57.2,54.9,30.25,SW,225,0.0,0.0,92,0.00,,,0.00,WUHU216HW,2013-05-19 10:59:00,
2013-05-19 07:04:00,57.6,55.3,30.25,North,0,0.0,0.0,92,0.00,,,0.00,WUHU216HW,2013-05-19 11:04:00,
2013-05-19 07:09:00,57.8,55.4,30.24,North,0,0.0,0.0,92,0.00,,,0.00,WUHU216HW,2013-05-19 11:09:00,
2013-05-19 07:14:00,58.0,55.4,30.24,North,0,0.0,0.0,91,0.00,,,0.00,WUHU216HW,2013-05-19 11:14:00,
2013-05-19 07:19:00,58.1,55.5,30.24,North,0,0.0,0.0,91,0.00,,,0.00,WUHU216HW,2013-05-19 11:19:00,
2013-05-19 07:24:00,58.3,55.4,30.25,North,0,0.0,0.0,90,0.00,,,0.00,WUHU216HW,2013-05-19 11:24:00,
2013-05-19 07:29:00,58.5,55.6,30.25,North,0,0.0,0.0,90,0.00,,,0.00,WUHU216HW,2013-05-19 11:29:00,
2013-05-19 07:34:00,58.7,55.8,30.25,North,0,0.0,0.0,90,0.00,,,0.00,WUHU216HW,2013-05-19 11:34:00,
2013-05-19 07:39:00,58.9,56.0,30.25,North,0,0.0,0.0,90,0.00,,,0.00,WUHU216HW,2013-05-19 11:39:00,
2013-05-19 07:44:00,58.9,56.3,30.25,North,0,0.0,0.0,91,0.00,,,0.00,WUHU216HW,2013-05-19 11:44:00,
2013-05-19 07:49:00,59.2,56.6,30.25,North,0,0.0,0.0,91,0.00,,,0.00,WUHU216HW,2013-05-19 11:49:00,
2013-05-19 07:54:00,59.4,56.5,30.25,North,0,0.0,0.0,90,0.00,,,0.00,WUHU216HW,2013-05-19 11:54:00,
2013-05-19 07:59:00,59.8,56.9,30.25,North,0,0.0,0.0,90,0.00,,,0.00,WUHU216HW,2013-05-19 11:59:00,
2013-05-19 08:05:00,60.1,57.2,30.25,North,0,0.0,0.0,90,0.00,,,0.00,WUHU216HW,2013-05-19 12:05:00,
2013-05-19 08:10:00,60.5,57.6,30.25,North,0,0.0,0.0,90,0.00,,,0.00,WUHU216HW,2013-05-19 12:10:00,
2013-05-19 08:15:00,60.7,57.4,30.25,North,0,0.0,0.0,89,0.00,,,0.00,WUHU216HW,2013-05-19 12:15:00,
2013-05-19 08:20:00,61.2,58.0,30.26,North,0,0.0,0.0,89,0.00,,,0.00,WUHU216HW,2013-05-19 12:20:00,
2013-05-19 08:25:00,61.9,58.4,30.25,North,0,0.0,0.0,88,0.00,,,0.00,WUHU216HW,2013-05-19 12:25:00,
2013-05-19 08:30:00,62.8,59.0,30.25,North,0,0.0,0.0,87,0.00,,,0.00,WUHU216HW,2013-05-19 12:30:00,
2013-05-19 08:35:00,63.4,59.1,30.25,North,0,0.0,0.0,86,0.00,,,0.00,WUHU216HW,2013-05-19 12:35:00,
2013-05-19 08:40:00,63.5,59.0,30.25,North,0,0.0,0.0,85,0.00,,,0.00,WUHU216HW,2013-05-19 12:40:00,
2013-05-19 08:45:00,63.7,59.1,30.26,North,0,0.0,0.0,85,0.00,,,0.00,WUHU216HW,2013-05-19 12:45:00,
2013-05-19 08:50:00,63.9,59.0,30.26,North,0,0.0,0.0,84,0.00,,,0.00,WUHU216HW,2013-05-19 12:50:00,
2013-05-19 08:55:00,64.1,59.1,30.26,North,0,0.0,0.0,84,0.00,,,0.00,WUHU216HW,2013-05-19 12:55:00,
2013-05-19 09:00:00,64.4,58.9,30.26,North,0,0.0,0.0,82,0.00,,,0.00,WUHU216HW,2013-05-19 13:00:00,
2013-05-19 09:05:00,64.8,59.2,30.25,North,0,0.0,0.0,82,0.00,,,0.00,WUHU216HW,2013-05-19 13:05:00,
2013-05-19 09:10:00,65.3,59.7,30.25,North,0,0.0,0.0,82,0.00,,,0.00,WUHU216HW,2013-05-19 13:10:00,
2013-05-19 09:15:00,65.9,60.0,30.25,North,0,0.0,0.0,81,0.00,,,0.00,WUHU216HW,2013-05-19 13:15:00,
2013-05-19 09:20:00,66.4,60.1,30.25,North,0,0.0,0.0,80,0.00,,,0.00,WUHU216HW,2013-05-19 13:20:00,
2013-05-19 09:26:00,66.8,60.1,30.25,North,0,0.0,0.0,79,0.00,,,0.00,WUHU216HW,2013-05-19 13:26:00,
2013-05-19 09:31:00,67.1,60.5,30.25,North,0,0.0,0.0,79,0.00,,,0.00,WUHU216HW,2013-05-19 13:31:00,
2013-05-19 09:36:00,67.7,60.7,30.25,North,0,0.0,0.0,78,0.00,,,0.00,WUHU216HW,2013-05-19 13:36:00,
2013-05-19 09:41:00,68.2,61.1,30.25,North,0,0.0,0.0,78,0.00,,,0.00,WUHU216HW,2013-05-19 13:41:00,
2013-05-19 09:46:00,69.1,61.9,30.24,North,0,0.0,0.0,78,0.00,,,0.00,WUHU216HW,2013-05-19 13:46:00,
2013-05-19 09:51:00,70.0,62.0,30.25,North,0,0.0,0.0,76,0.00,,,0.00,WUHU216HW,2013-05-19 13:51:00,
2013-05-19 09:56:00,70.6,62.2,30.25,North,0,0.0,0.0,75,0.00,,,0.00,WUHU216HW,2013-05-19 13:56:00,
2013-05-19 10:01:00,70.6,61.8,30.25,North,0,0.0,0.0,74,0.00,,,0.00,WUHU216HW,2013-05-19 14:01:00,
2013-05-19 10:06:00,70.9,61.8,30.25,North,0,0.0,0.0,73,0.00,,,0.00,WUHU216HW,2013-05-19 14:06:00,
2013-05-19 10:11:00,70.9,62.2,30.24,North,0,0.0,0.0,74,0.00,,,0.00,WUHU216HW,2013-05-19 14:11:00,
2013-05-19 10:16:00,71.3,62.2,30.25,North,0,0.0,0.0,73,0.00,,,0.00,WUHU216HW,2013-05-19 14:16:00,
2013-05-19 10:21:00,71.6,62.6,30.25,North,0,0.0,0.0,73,0.00,,,0.00,WUHU216HW,2013-05-19 14:21:00,
2013-05-19 10:26:00,71.6,61.7,30.24,North,0,0.0,0.0,71,0.00,,,0.00,WUHU216HW,2013-05-19 14:26:00,
2013-05-19 10:31:00,71.8,61.9,30.24,North,0,0.0,0.0,71,0.00,,,0.00,WUHU216HW,2013-05-19 14:31:00,
2013-05-19 10:36:00,72.2,62.6,30.24,North,0,0.0,0.0,72,0.00,,,0.00,WUHU216HW,2013-05-19 14:36:00,
2013-05-19 10:41:00,72.7,62.8,30.24,North,0,0.0,0.0,71,0.00,,,0.00,WUHU216HW,2013-05-19 14:41:00,
2013-05-19 10:46:00,73.1,62.8,30.24,North,0,0.0,0.0,70,0.00,,,0.00,WUHU216HW,2013-05-19 14:46:00,
2013-05-19 10:52:00,73.4,62.7,30.24,North,0,0.0,0.0,69,0.00,,,0.00,WUHU216HW,2013-05-19 14:52:00,
2013-05-19 10:57:00,74.5,62.8,30.24,SE,135,2.2,2.2,67,0.00,,,0.00,WUHU216HW,2013-05-19 14:57:00,
2013-05-19 11:02:00,75.2,63.9,30.23,North,0,0.0,2.2,68,0.00,,,0.00,WUHU216HW,2013-05-19 15:02:00,
2013-05-19 11:07:00,75.6,63.5,30.24,North,0,0.0,2.2,66,0.00,,,0.00,WUHU216HW,2013-05-19 15:07:00,
2013-05-19 11:12:00,75.6,63.0,30.23,North,0,0.0,0.0,65,0.00,,,0.00,WUHU216HW,2013-05-19 15:12:00,
2013-05-19 11:17:00,75.6,63.5,30.23,North,0,0.0,0.0,66,0.00,,,0.00,WUHU216HW,2013-05-19 15:17:00,
2013-05-19 11:22:00,75.6,63.0,30.23,North,0,0.0,0.0,65,0.00,,,0.00,WUHU216HW,2013-05-19 15:22:00,
2013-05-19 11:27:00,75.6,63.0,30.23,North,0,0.0,0.0,65,0.00,,,0.00,WUHU216HW,2013-05-19 15:27:00,
2013-05-19 11:32:00,76.0,63.7,30.23,North,0,0.0,0.0,66,0.00,,,0.00,WUHU216HW,2013-05-19 15:32:00,
2013-05-19 11:37:00,76.3,63.6,30.23,North,0,0.0,0.0,65,0.00,,,0.00,WUHU216HW,2013-05-19 15:37:00,
2013-05-19 11:42:00,76.7,63.1,30.23,North,0,0.0,0.0,63,0.00,,,0.00,WUHU216HW,2013-05-19 15:42:00,
2013-05-19 11:48:00,77.0,63.5,30.23,North,0,0.0,0.0,63,0.00,,,0.00,WUHU216HW,2013-05-19 15:48:00,
2013-05-19 11:53:00,77.8,63.3,30.23,North,0,0.0,0.0,61,0.00,,,0.00,WUHU216HW,2013-05-19 15:53:00,
2013-05-19 11:58:00,77.0,63.0,30.22,North,0,0.0,0.0,62,0.00,,,0.00,WUHU216HW,2013-05-19 15:58:00,
2013-05-19 12:03:00,77.4,63.8,30.23,North,0,0.0,0.0,63,0.00,,,0.00,WUHU216HW,2013-05-19 16:03:00,
2013-05-19 12:08:00,77.4,62.9,30.22,North,0,0.0,0.0,61,0.00,,,0.00,WUHU216HW,2013-05-19 16:08:00,
2013-05-19 12:13:00,76.9,63.3,30.22,North,0,0.0,0.0,63,0.00,,,0.00,WUHU216HW,2013-05-19 16:13:00,
2013-05-19 12:18:00,77.4,62.9,30.22,ESE,113,3.6,3.6,61,0.00,,,0.00,WUHU216HW,2013-05-19 16:18:00,
2013-05-19 12:23:00,78.8,64.8,30.21,ESE,113,3.2,3.6,62,0.00,,,0.00,WUHU216HW,2013-05-19 16:23:00,
2013-05-19 12:28:00,78.8,63.9,30.21,North,0,0.0,3.6,60,0.00,,,0.00,WUHU216HW,2013-05-19 16:28:00,
2013-05-19 12:33:00,79.0,64.1,30.20,SE,135,3.2,3.2,60,0.00,,,0.00,WUHU216HW,2013-05-19 16:33:00,
2013-05-19 12:38:00,78.8,63.4,30.20,East,90,2.2,3.2,59,0.00,,,0.00,WUHU216HW,2013-05-19 16:38:00,
2013-05-19 12:43:00,78.5,63.5,30.20,SSE,158,3.6,3.6,60,0.00,,,0.00,WUHU216HW,2013-05-19 16:43:00,
2013-05-19 12:48:00,78.5,63.5,30.19,North,0,0.0,3.6,60,0.00,,,0.00,WUHU216HW,2013-05-19 16:48:00,
2013-05-19 12:53:00,78.8,63.9,30.19,North,0,0.0,0.0,60,0.00,,,0.00,WUHU216HW,2013-05-19 16:53:00,
2013-05-19 12:58:00,78.8,63.9,30.19,North,0,0.0,0.0,60,0.00,,,0.00,WUHU216HW,2013-05-19 16:58:00,
2013-05-19 13:03:00,79.6,64.5,30.19,North,0,0.0,0.0,60,0.00,,,0.00,WUHU216HW,2013-05-19 17:03:00,
2013-05-19 13:08:00,79.7,63.2,30.18,North,0,0.0,0.0,57,0.00,,,0.00,WUHU216HW,2013-05-19 17:08:00,
2013-05-19 13:13:00,79.6,64.0,30.19,North,0,0.0,0.0,59,0.00,,,0.00,WUHU216HW,2013-05-19 17:13:00,
2013-05-19 13:18:00,79.2,63.2,30.19,North,0,0.0,0.0,58,0.00,,,0.00,WUHU216HW,2013-05-19 17:18:00,
2013-05-19 13:24:00,80.1,63.5,30.19,North,0,0.0,0.0,57,0.00,,,0.00,WUHU216HW,2013-05-19 17:24:00,
2013-05-19 13:29:00,79.7,63.2,30.18,North,0,0.0,0.0,57,0.00,,,0.00,WUHU216HW,2013-05-19 17:29:00,
2013-05-19 13:34:00,79.7,63.2,30.18,North,0,0.0,0.0,57,0.00,,,0.00,WUHU216HW,2013-05-19 17:34:00,
2013-05-19 13:39:00,80.5,64.4,30.18,North,0,0.0,0.0,58,0.00,,,0.00,WUHU216HW,2013-05-19 17:39:00,
2013-05-19 13:44:00,81.5,63.7,30.18,North,0,0.0,0.0,55,0.00,,,0.00,WUHU216HW,2013-05-19 17:44:00,
2013-05-19 13:49:00,81.2,63.4,30.18,North,0,0.0,0.0,55,0.00,,,0.00,WUHU216HW,2013-05-19 17:49:00,
2013-05-19 13:54:00,81.0,63.3,30.18,North,0,0.0,0.0,55,0.00,,,0.00,WUHU216HW,2013-05-19 17:54:00,
2013-05-19 13:59:00,80.5,64.4,30.18,North,0,0.0,0.0,58,0.00,,,0.00,WUHU216HW,2013-05-19 17:59:00,
2013-05-19 14:04:00,80.8,63.1,30.18,ESE,113,3.6,4.4,55,0.00,,,0.00,WUHU216HW,2013-05-19 18:04:00,
2013-05-19 14:10:00,80.3,63.1,30.18,ESE,113,4.4,4.4,56,0.00,,,0.00,WUHU216HW,2013-05-19 18:10:00,
2013-05-19 14:15:00,80.3,63.1,30.17,ESE,113,5.4,5.4,56,0.00,,,0.00,WUHU216HW,2013-05-19 18:15:00,
2013-05-19 14:20:00,80.3,63.6,30.17,North,0,0.0,5.4,57,0.00,,,0.00,WUHU216HW,2013-05-19 18:20:00,
2013-05-19 14:25:00,80.1,63.5,30.17,SSE,158,4.4,4.4,57,0.00,,,0.00,WUHU216HW,2013-05-19 18:25:00,
2013-05-19 14:30:00,80.3,63.6,30.17,ESE,113,3.6,4.4,57,0.00,,,0.00,WUHU216HW,2013-05-19 18:30:00,
2013-05-19 14:35:00,80.8,63.6,30.17,WSW,248,3.6,3.6,56,0.00,,,0.00,WUHU216HW,2013-05-19 18:35:00,
2013-05-19 14:40:00,80.8,63.6,30.17,WSW,248,3.6,3.6,56,0.00,,,0.00,WUHU216HW,2013-05-19 18:40:00,
2013-05-19 14:45:00,80.6,64.0,30.17,SE,135,0.0,1.8,57,0.00,,,0.00,WUHU216HW,2013-05-19 18:45:00,
2013-05-19 14:50:00,80.6,63.5,30.17,SE,135,0.4,1.8,56,0.00,,,0.00,WUHU216HW,2013-05-19 18:50:00,
2013-05-19 14:55:00,80.1,62.9,30.17,North,0,0.0,0.4,56,0.00,,,0.00,WUHU216HW,2013-05-19 18:55:00,
2013-05-19 15:00:00,79.0,63.0,30.16,North,0,0.0,0.0,58,0.00,,,0.00,WUHU216HW,2013-05-19 19:00:00,
2013-05-19 15:05:00,79.0,63.5,30.16,North,0,0.0,0.0,59,0.00,,,0.00,WUHU216HW,2013-05-19 19:05:00,
2013-05-19 15:11:00,79.6,63.6,30.16,North,0,0.0,0.0,58,0.00,,,0.00,WUHU216HW,2013-05-19 19:11:00,
2013-05-19 15:16:00,79.4,63.4,30.16,North,0,0.0,0.0,58,0.00,,,0.00,WUHU216HW,2013-05-19 19:16:00,
2013-05-19 15:21:00,79.6,63.6,30.16,North,0,0.0,0.0,58,0.00,,,0.00,WUHU216HW,2013-05-19 19:21:00,
2013-05-19 15:26:00,79.9,63.8,30.16,North,0,0.0,0.0,58,0.00,,,0.00,WUHU216HW,2013-05-19 19:26:00,
2013-05-19 15:31:00,79.6,64.0,30.16,North,0,0.0,0.0,59,0.00,,,0.00,WUHU216HW,2013-05-19 19:31:00,
2013-05-19 15:36:00,79.6,64.0,30.16,North,0,0.0,0.0,59,0.00,,,0.00,WUHU216HW,2013-05-19 19:36:00,
2013-05-19 15:41:00,79.7,64.2,30.16,North,0,0.0,0.0,59,0.00,,,0.00,WUHU216HW,2013-05-19 19:41:00,
2013-05-19 15:46:00,80.1,64.5,30.16,North,0,0.0,0.0,59,0.00,,,0.00,WUHU216HW,2013-05-19 19:46:00,
2013-05-19 15:51:00,80.5,64.8,30.15,North,0,0.0,0.0,59,0.00,,,0.00,WUHU216HW,2013-05-19 19:51:00,
2013-05-19 15:56:00,80.1,64.0,30.15,North,0,0.0,0.0,58,0.00,,,0.00,WUHU216HW,2013-05-19 19:56:00,
2013-05-19 16:01:00,80.1,64.0,30.15,North,0,0.0,0.0,58,0.00,,,0.00,WUHU216HW,2013-05-19 20:01:00,
2013-05-19 16:06:00,80.6,64.4,30.15,North,0,0.0,0.0,58,0.00,,,0.00,WUHU216HW,2013-05-19 20:06:00,
2013-05-19 16:11:00,81.0,64.3,30.15,North,0,0.0,0.0,57,0.00,,,0.00,WUHU216HW,2013-05-19 20:11:00,
2013-05-19 16:16:00,81.0,64.3,30.15,North,0,0.0,0.0,57,0.00,,,0.00,WUHU216HW,2013-05-19 20:16:00,
2013-05-19 16:21:00,81.4,64.1,30.15,North,0,0.0,0.0,56,0.00,,,0.00,WUHU216HW,2013-05-19 20:21:00,
2013-05-19 16:27:00,81.4,64.6,30.15,North,0,0.0,0.0,57,0.00,,,0.00,WUHU216HW,2013-05-19 20:27:00,
2013-05-19 16:32:00,81.4,64.1,30.16,North,0,0.0,0.0,56,0.00,,,0.00,WUHU216HW,2013-05-19 20:32:00,
2013-05-19 16:37:00,81.4,63.5,30.15,North,0,0.0,0.0,55,0.00,,,0.00,WUHU216HW,2013-05-19 20:37:00,
2013-05-19 16:42:00,80.8,64.1,30.15,North,0,0.0,0.0,57,0.00,,,0.00,WUHU216HW,2013-05-19 20:42:00,
2013-05-19 16:47:00,80.6,64.0,30.15,North,0,0.0,0.0,57,0.00,,,0.00,WUHU216HW,2013-05-19 20:47:00,
2013-05-19 16:52:00,80.5,64.4,30.15,North,0,0.0,0.0,58,0.00,,,0.00,WUHU216HW,2013-05-19 20:52:00,
2013-05-19 16:57:00,79.9,63.3,30.15,North,0,0.0,0.0,57,0.00,,,0.00,WUHU216HW,2013-05-19 20:57:00,
2013-05-19 17:02:00,79.6,63.6,30.15,North,0,0.0,0.0,58,0.00,,,0.00,WUHU216HW,2013-05-19 21:02:00,
2013-05-19 17:07:00,79.4,63.9,30.15,North,0,0.0,0.0,59,0.00,,,0.00,WUHU216HW,2013-05-19 21:07:00,
2013-05-19 17:12:00,79.4,63.9,30.15,North,0,0.0,0.0,59,0.00,,,0.00,WUHU216HW,2013-05-19 21:12:00,
2013-05-19 17:17:00,79.4,63.9,30.15,North,0,0.0,0.0,59,0.00,,,0.00,WUHU216HW,2013-05-19 21:17:00,
2013-05-19 17:23:00,78.8,63.9,30.15,North,0,0.0,0.0,60,0.00,,,0.00,WUHU216HW,2013-05-19 21:23:00,
2013-05-19 17:28:00,78.7,64.2,30.16,North,0,0.0,0.0,61,0.00,,,0.00,WUHU216HW,2013-05-19 21:28:00,
2013-05-19 17:33:00,79.0,64.1,30.16,North,0,0.0,0.0,60,0.00,,,0.00,WUHU216HW,2013-05-19 21:33:00,
2013-05-19 17:38:00,79.6,64.5,30.16,North,0,0.0,0.0,60,0.00,,,0.00,WUHU216HW,2013-05-19 21:38:00,
2013-05-19 17:43:00,79.4,64.4,30.16,North,0,0.0,0.0,60,0.00,,,0.00,WUHU216HW,2013-05-19 21:43:00,
2013-05-19 17:48:00,78.5,63.5,30.16,North,0,0.0,0.0,60,0.00,,,0.00,WUHU216HW,2013-05-19 21:48:00,
2013-05-19 17:53:00,77.8,63.3,30.16,North,0,0.0,0.0,61,0.00,,,0.00,WUHU216HW,2013-05-19 21:53:00,
2013-05-19 17:58:00,77.8,63.3,30.16,North,0,0.0,0.0,61,0.00,,,0.00,WUHU216HW,2013-05-19 21:58:00,
2013-05-19 18:05:00,76.3,63.2,30.16,North,0,0.0,0.0,64,0.00,,,0.00,WUHU216HW,2013-05-19 22:05:00,
2013-05-19 18:10:00,76.3,63.2,30.16,North,0,0.0,0.0,64,0.00,,,0.00,WUHU216HW,2013-05-19 22:10:00,
2013-05-19 18:15:00,76.0,63.4,30.16,North,0,0.0,0.0,65,0.00,,,0.00,WUHU216HW,2013-05-19 22:15:00,
2013-05-19 18:20:00,75.8,63.6,30.16,North,0,0.0,0.0,66,0.00,,,0.00,WUHU216HW,2013-05-19 22:20:00,
2013-05-19 18:25:00,75.6,63.5,30.15,North,0,0.0,0.0,66,0.00,,,0.00,WUHU216HW,2013-05-19 22:25:00,
2013-05-19 18:30:00,75.6,63.5,30.15,North,0,0.0,0.0,66,0.00,,,0.00,WUHU216HW,2013-05-19 22:30:00,
2013-05-19 18:35:00,75.6,63.8,30.15,North,0,0.0,0.0,67,0.00,,,0.00,WUHU216HW,2013-05-19 22:35:00,
2013-05-19 18:40:00,75.4,64.1,30.14,North,0,0.0,0.0,68,0.00,,,0.00,WUHU216HW,2013-05-19 22:40:00,
2013-05-19 18:45:00,75.4,63.7,30.14,North,0,0.0,0.0,67,0.00,,,0.00,WUHU216HW,2013-05-19 22:45:00,
2013-05-19 18:50:00,75.4,63.7,30.14,North,0,0.0,0.0,67,0.00,,,0.00,WUHU216HW,2013-05-19 22:50:00,
2013-05-19 18:55:00,75.6,63.8,30.14,North,0,0.0,0.0,67,0.00,,,0.00,WUHU216HW,2013-05-19 22:55:00,
2013-05-19 19:00:00,75.4,63.3,30.14,North,0,0.0,0.0,66,0.00,,,0.00,WUHU216HW,2013-05-19 23:00:00,
2013-05-19 19:05:00,75.2,63.6,30.14,North,0,0.0,0.0,67,0.00,,,0.00,WUHU216HW,2013-05-19 23:05:00,
2013-05-19 19:11:00,75.2,63.1,30.13,North,0,0.0,0.0,66,0.00,,,0.00,WUHU216HW,2013-05-19 23:11:00,
2013-05-19 19:15:00,75.4,63.3,30.13,North,0,0.0,0.0,66,0.00,,,0.00,WUHU216HW,2013-05-19 23:15:00,
2013-05-19 19:20:00,75.6,63.5,30.13,North,0,0.0,0.0,66,0.00,,,0.00,WUHU216HW,2013-05-19 23:20:00,
2013-05-19 19:26:00,75.4,62.8,30.14,North,0,0.0,0.0,65,0.00,,,0.00,WUHU216HW,2013-05-19 23:26:00,
2013-05-19 19:31:00,75.1,62.9,30.14,North,0,0.0,0.0,66,0.00,,,0.00,WUHU216HW,2013-05-19 23:31:00,
2013-05-19 19:36:00,75.1,62.9,30.14,North,0,0.0,0.0,66,0.00,,,0.00,WUHU216HW,2013-05-19 23:36:00,
2013-05-19 19:41:00,75.1,62.9,30.14,North,0,0.0,0.0,66,0.00,,,0.00,WUHU216HW,2013-05-19 23:41:00,
2013-05-19 20:00:00,73.3,62.6,30.15,North,0,0.0,0.0,69,0.00,,,0.00,WUHU216HW,2013-05-20 00:00:00,
2013-05-19 20:05:00,73.1,62.4,30.15,North,0,0.0,0.0,69,0.00,,,0.00,WUHU216HW,2013-05-20 00:05:00,
2013-05-19 20:10:00,73.1,62.4,30.15,North,0,0.0,0.0,69,0.00,,,0.00,WUHU216HW,2013-05-20 00:10:00,
2013-05-19 20:15:00,73.1,62.8,30.15,North,0,0.0,0.0,70,0.00,,,0.00,WUHU216HW,2013-05-20 00:15:00,
2013-05-19 20:20:00,73.1,62.8,30.15,North,0,0.0,0.0,70,0.00,,,0.00,WUHU216HW,2013-05-20 00:20:00,
2013-05-19 20:25:00,72.2,61.5,30.16,North,0,0.0,0.0,69,0.00,,,0.00,WUHU216HW,2013-05-20 00:25:00,
2013-05-19 20:30:00,72.0,61.7,30.16,North,0,0.0,0.0,70,0.00,,,0.00,WUHU216HW,2013-05-20 00:30:00,
2013-05-19 20:35:00,71.8,61.6,30.16,North,0,0.0,0.0,70,0.00,,,0.00,WUHU216HW,2013-05-20 00:35:00,
2013-05-19 20:40:00,71.6,61.4,30.16,North,0,0.0,0.0,70,0.00,,,0.00,WUHU216HW,2013-05-20 00:40:00,
2013-05-19 20:45:00,71.5,61.2,30.16,North,0,0.0,0.0,70,0.00,,,0.00,WUHU216HW,2013-05-20 00:45:00,
2013-05-19 20:50:00,71.1,60.8,30.16,North,0,0.0,0.0,70,0.00,,,0.00,WUHU216HW,2013-05-20 00:50:00,
2013-05-19 20:56:00,70.9,60.7,30.16,North,0,0.0,0.0,70,0.00,,,0.00,WUHU216HW,2013-05-20 00:56:00,
2013-05-19 21:01:00,70.6,60.3,30.16,North,0,0.0,0.0,70,0.00,,,0.00,WUHU216HW,2013-05-20 01:01:00,
2013-05-19 21:06:00,70.2,60.3,30.17,North,0,0.0,0.0,71,0.00,,,0.00,WUHU216HW,2013-05-20 01:06:00,
2013-05-19 21:11:00,70.0,60.1,30.17,North,0,0.0,0.0,71,0.00,,,0.00,WUHU216HW,2013-05-20 01:11:00,
2013-05-19 21:16:00,69.8,59.9,30.17,North,0,0.0,0.0,71,0.00,,,0.00,WUHU216HW,2013-05-20 01:16:00,
2013-05-19 21:21:00,69.8,59.9,30.17,North,0,0.0,0.0,71,0.00,,,0.00,WUHU216HW,2013-05-20 01:21:00,
2013-05-19 21:26:00,69.5,59.7,30.17,North,0,0.0,0.0,71,0.00,,,0.00,WUHU216HW,2013-05-20 01:26:00,
2013-05-19 21:31:00,69.3,60.2,30.17,North,0,0.0,0.0,73,0.00,,,0.00,WUHU216HW,2013-05-20 01:31:00,
2013-05-19 21:36:00,68.8,59.8,30.17,North,0,0.0,0.0,73,0.00,,,0.00,WUHU216HW,2013-05-20 01:36:00,
2013-05-19 21:41:00,68.6,59.9,30.18,North,0,0.0,0.0,74,0.00,,,0.00,WUHU216HW,2013-05-20 01:41:00,
2013-05-19 21:46:00,68.2,60.0,30.18,North,0,0.0,0.0,75,0.00,,,0.00,WUHU216HW,2013-05-20 01:46:00,
2013-05-19 21:51:00,67.9,60.0,30.18,North,0,0.0,0.0,76,0.00,,,0.00,WUHU216HW,2013-05-20 01:51:00,
2013-05-19 21:56:00,67.5,59.7,30.18,North,0,0.0,0.0,76,0.00,,,0.00,WUHU216HW,2013-05-20 01:56:00,
2013-05-19 22:01:00,67.3,59.9,30.18,North,0,0.0,0.0,77,0.00,,,0.00,WUHU216HW,2013-05-20 02:01:00,
2013-05-19 22:06:00,67.1,60.1,30.19,North,0,0.0,0.0,78,0.00,,,0.00,WUHU216HW,2013-05-20 02:06:00,
2013-05-19 22:11:00,67.0,60.0,30.19,North,0,0.0,0.0,78,0.00,,,0.00,WUHU216HW,2013-05-20 02:11:00,
2013-05-19 22:16:00,66.8,59.3,30.19,North,0,0.0,0.0,77,0.00,,,0.00,WUHU216HW,2013-05-20 02:16:00,
2013-05-19 22:22:00,66.6,59.6,30.19,North,0,0.0,0.0,78,0.00,,,0.00,WUHU216HW,2013-05-20 02:22:00,
2013-05-19 22:27:00,66.6,59.6,30.19,North,0,0.0,0.0,78,0.00,,,0.00,WUHU216HW,2013-05-20 02:27:00,
2013-05-19 22:32:00,66.4,59.4,30.19,North,0,0.0,0.0,78,0.00,,,0.00,WUHU216HW,2013-05-20 02:32:00,
2013-05-19 22:37:00,66.2,58.8,30.19,North,0,0.0,0.0,77,0.00,,,0.00,WUHU216HW,2013-05-20 02:37:00,
2013-05-19 22:42:00,66.2,58.8,30.19,North,0,0.0,0.0,77,0.00,,,0.00,WUHU216HW,2013-05-20 02:42:00,
2013-05-19 22:47:00,66.2,58.8,30.19,North,0,0.0,0.0,77,0.00,,,0.00,WUHU216HW,2013-05-20 02:47:00,
2013-05-19 22:52:00,65.9,59.2,30.18,North,0,0.0,0.0,79,0.00,,,0.00,WUHU216HW,2013-05-20 02:52:00,
2013-05-19 22:57:00,65.5,58.9,30.18,North,0,0.0,0.0,79,0.00,,,0.00,WUHU216HW,2013-05-20 02:57:00,
2013-05-19 23:02:00,65.5,59.2,30.18,North,0,0.0,0.0,80,0.00,,,0.00,WUHU216HW,2013-05-20 03:02:00,
2013-05-19 23:07:00,65.5,59.2,30.18,North,0,0.0,0.0,80,0.00,,,0.00,WUHU216HW,2013-05-20 03:07:00,
2013-05-19 23:12:00,65.2,59.2,30.17,North,0,0.0,0.0,81,0.00,,,0.00,WUHU216HW,2013-05-20 03:12:00,
2013-05-19 23:17:00,64.8,59.2,30.17,North,0,0.0,0.0,82,0.00,,,0.00,WUHU216HW,2013-05-20 03:17:00,
2013-05-19 23:22:00,64.8,58.9,30.17,North,0,0.0,0.0,81,0.00,,,0.00,WUHU216HW,2013-05-20 03:22:00,
2013-05-19 23:27:00,64.6,58.3,30.17,North,0,0.0,0.0,80,0.00,,,0.00,WUHU216HW,2013-05-20 03:27:00,
2013-05-19 23:32:00,64.8,58.5,30.17,North,0,0.0,0.0,80,0.00,,,0.00,WUHU216HW,2013-05-20 03:32:00,
2013-05-19 23:37:00,64.8,58.9,30.17,North,0,0.0,0.0,81,0.00,,,0.00,WUHU216HW,2013-05-20 03:37:00,
2013-05-19 23:43:00,64.8,58.9,30.17,North,0,0.0,0.0,81,0.00,,,0.00,WUHU216HW,2013-05-20 03:43:00,